Location: Archemont
(49.1579°N, 1.7598°E)
Time: 10:55:55
(UTC+00:00)

Cosmos 1844 - Pass Details

Date: 03 February 2023
Orbit: 822 x 868 km, 70.9° (Epoch: 29 March)

Event Time Altitude Azimuth Distance (km) Brightness Sun altitude
Rises 17:54:34 0° 332° (NNW) 3,465 7.1 -10.4°
Reaches altitude 10° 17:57:05 10° 337° (NNW) 2,524 6.3 -10.8°
Maximum altitude 18:02:50 60° 57° (ENE) 992 3.8 -11.7°
Drops below altitude 10° 18:08:31 10° 137° (SE) 2,497 5.8 -12.6°
Sets 18:11:00 0° 141° (SE) 3,425 6.6 -13.0°
